Time,TemperatureF,DewpointF,PressureIn,WindDirection,WindDirectionDegrees,WindSpeedMPH,WindSpeedGustMPH,Humidity,HourlyPrecipIn,Conditions,Clouds,dailyrainin,SoftwareType,DateUTC
2014-01-07 00:02:00,-16.8,-24.8,30.15,West,270,0.0,0.0,66,0.00,CLR,,0.00,WeatherDisplay:10.37,2014-01-07 06:02:00,
2014-01-07 00:07:00,-16.8,-24.8,30.15,West,270,0.0,0.0,66,0.00,CLR,,0.00,WeatherDisplay:10.37,2014-01-07 06:07:00,
2014-01-07 00:12:00,-16.8,-24.8,30.15,West,270,0.0,0.0,66,0.00,CLR,,0.00,WeatherDisplay:10.37,2014-01-07 06:12:00,
2014-01-07 00:17:00,-16.8,-24.8,30.15,West,270,0.0,0.0,66,0.00,CLR,,0.00,WeatherDisplay:10.37,2014-01-07 06:17:00,
2014-01-07 00:22:00,-16.4,-24.4,30.15,WNW,292,0.0,0.0,66,0.00,CLR,,0.00,WeatherDisplay:10.37,2014-01-07 06:22:00,
2014-01-07 00:27:00,-16.2,-24.2,30.14,WNW,292,0.0,0.0,66,0.00,CLR,,0.00,WeatherDisplay:10.37,2014-01-07 06:27:00,
2014-01-07 00:32:00,-16.2,-24.2,30.14,NNW,338,0.0,0.0,66,0.00,CLR,,0.00,WeatherDisplay:10.37,2014-01-07 06:32:00,
2014-01-07 00:37:00,-16.1,-23.8,30.14,NW,315,0.0,0.0,67,0.00,CLR,,0.00,WeatherDisplay:10.37,2014-01-07 06:37:00,
2014-01-07 00:42:00,-16.1,-23.8,30.14,NNW,338,0.0,0.0,67,0.00,CLR,,0.00,WeatherDisplay:10.37,2014-01-07 06:42:00,
2014-01-07 00:47:00,-16.1,-23.8,30.14,NNW,338,0.0,0.0,67,0.00,CLR,,0.00,WeatherDisplay:10.37,2014-01-07 06:47:00,
2014-01-07 00:52:00,-16.1,-23.8,30.14,NW,315,0.0,0.0,67,0.00,CLR,,0.00,WeatherDisplay:10.37,2014-01-07 06:52:00,
2014-01-07 00:57:00,-16.1,-23.8,30.14,WNW,292,0.0,0.0,67,0.00,CLR,,0.00,WeatherDisplay:10.37,2014-01-07 06:57:00,
2014-01-07 01:02:00,-15.9,-23.6,30.14,WNW,292,0.0,0.0,67,0.00,CLR,,0.00,WeatherDisplay:10.37,2014-01-07 07:02:00,
2014-01-07 01:07:00,-15.9,-23.6,30.14,WNW,292,0.0,0.0,67,0.00,CLR,,0.00,WeatherDisplay:10.37,2014-01-07 07:07:00,
2014-01-07 01:12:00,-15.7,-23.4,30.14,WNW,292,0.0,0.0,67,0.00,CLR,,0.00,WeatherDisplay:10.37,2014-01-07 07:12:00,
2014-01-07 01:15:00,-15.7,-23.4,30.14,WNW,292,0.0,0.0,67,0.00,CLR,,0.00,WeatherDisplay:10.37,2014-01-07 07:15:00,
2014-01-07 01:20:00,-15.5,-23.3,30.13,WNW,292,0.0,0.0,67,0.00,CLR,,0.00,WeatherDisplay:10.37,2014-01-07 07:20:00,
2014-01-07 01:25:00,-15.5,-23.3,30.13,WNW,292,0.0,0.0,67,0.00,CLR,,0.00,WeatherDisplay:10.37,2014-01-07 07:25:00,
2014-01-07 01:30:00,-15.7,-23.4,30.13,WNW,292,0.0,0.0,67,0.00,CLR,,0.00,WeatherDisplay:10.37,2014-01-07 07:30:00,
2014-01-07 01:35:00,-15.7,-23.4,30.13,WNW,292,0.0,0.0,67,0.00,CLR,,0.00,WeatherDisplay:10.37,2014-01-07 07:35:00,
2014-01-07 01:36:00,-15.7,-23.4,30.13,WNW,292,0.0,0.0,67,0.00,CLR,,0.00,WeatherDisplay:10.37,2014-01-07 07:36:00,
2014-01-07 01:41:00,-15.7,-23.4,30.13,WNW,292,0.0,0.0,67,0.00,CLR,,0.00,WeatherDisplay:10.37,2014-01-07 07:41:00,
2014-01-07 01:46:00,-15.7,-23.4,30.13,WNW,292,0.0,0.0,67,0.00,CLR,,0.00,WeatherDisplay:10.37,2014-01-07 07:46:00,
2014-01-07 01:51:00,-15.7,-23.4,30.13,WNW,292,0.0,0.0,67,0.00,CLR,,0.00,WeatherDisplay:10.37,2014-01-07 07:51:00,
2014-01-07 01:56:00,-15.7,-23.4,30.13,WNW,292,0.0,0.0,67,0.00,CLR,,0.00,WeatherDisplay:10.37,2014-01-07 07:56:00,
2014-01-07 02:01:00,-15.7,-23.4,30.13,WNW,292,0.0,0.0,67,0.00,CLR,,0.00,WeatherDisplay:10.37,2014-01-07 08:01:00,
2014-01-07 02:06:00,-15.7,-23.4,30.13,WNW,292,0.0,0.0,67,0.00,CLR,,0.00,WeatherDisplay:10.37,2014-01-07 08:06:00,
2014-01-07 02:11:00,-15.9,-23.6,30.13,WNW,292,0.0,0.0,67,0.00,CLR,,0.00,WeatherDisplay:10.37,2014-01-07 08:11:00,
2014-01-07 02:16:00,-15.7,-23.4,30.13,WNW,292,0.0,0.0,67,0.00,CLR,,0.00,WeatherDisplay:10.37,2014-01-07 08:16:00,
2014-01-07 02:21:00,-15.7,-23.4,30.13,WNW,292,0.0,0.0,67,0.00,CLR,,0.00,WeatherDisplay:10.37,2014-01-07 08:21:00,
2014-01-07 02:26:00,-15.5,-23.3,30.13,WNW,292,0.0,0.0,67,0.00,CLR,,0.00,WeatherDisplay:10.37,2014-01-07 08:26:00,
2014-01-07 02:31:00,-15.5,-23.3,30.13,WNW,292,0.0,0.0,67,0.00,CLR,,0.00,WeatherDisplay:10.37,2014-01-07 08:31:00,
2014-01-07 02:36:00,-15.5,-23.3,30.14,WNW,292,0.0,0.0,67,0.00,CLR,,0.00,WeatherDisplay:10.37,2014-01-07 08:36:00,
2014-01-07 02:41:00,-15.5,-23.3,30.14,WNW,292,0.0,0.0,67,0.00,CLR,,0.00,WeatherDisplay:10.37,2014-01-07 08:41:00,
2014-01-07 02:46:00,-15.5,-23.3,30.14,WNW,292,0.0,0.0,67,0.00,CLR,,0.00,WeatherDisplay:10.37,2014-01-07 08:46:00,
2014-01-07 02:51:00,-15.3,-23.1,30.14,WNW,292,0.0,0.0,67,0.00,CLR,,0.00,WeatherDisplay:10.37,2014-01-07 08:51:00,
2014-01-07 02:56:00,-15.3,-23.1,30.14,WNW,292,0.0,0.0,67,0.00,CLR,,0.00,WeatherDisplay:10.37,2014-01-07 08:56:00,
2014-01-07 03:01:00,-15.3,-23.1,30.14,WNW,292,0.0,0.0,67,0.00,CLR,,0.00,WeatherDisplay:10.37,2014-01-07 09:01:00,
2014-01-07 03:06:00,-15.3,-23.1,30.14,WNW,292,0.0,0.0,67,0.00,CLR,,0.00,WeatherDisplay:10.37,2014-01-07 09:06:00,
2014-01-07 03:11:00,-15.3,-23.1,30.14,WNW,292,0.0,0.0,67,0.00,CLR,,0.00,WeatherDisplay:10.37,2014-01-07 09:11:00,
2014-01-07 03:16:00,-15.2,-22.9,30.13,WNW,292,0.0,0.0,67,0.00,CLR,,0.00,WeatherDisplay:10.37,2014-01-07 09:16:00,
2014-01-07 03:21:00,-15.2,-22.9,30.13,WNW,292,0.0,0.0,67,0.00,CLR,,0.00,WeatherDisplay:10.37,2014-01-07 09:21:00,
2014-01-07 03:26:00,-15.0,-22.7,30.13,WNW,292,0.0,0.0,67,0.00,CLR,,0.00,WeatherDisplay:10.37,2014-01-07 09:26:00,
2014-01-07 03:31:00,-14.8,-22.6,30.13,WNW,292,0.0,0.0,67,0.00,CLR,,0.00,WeatherDisplay:10.37,2014-01-07 09:31:00,
2014-01-07 03:36:00,-14.8,-22.6,30.12,WNW,292,0.0,0.0,67,0.00,CLR,,0.00,WeatherDisplay:10.37,2014-01-07 09:36:00,
2014-01-07 03:41:00,-14.4,-22.2,30.12,WNW,292,0.0,0.0,67,0.00,CLR,,0.00,WeatherDisplay:10.37,2014-01-07 09:41:00,
2014-01-07 03:46:00,-14.4,-22.2,30.12,WNW,292,0.0,0.0,67,0.00,CLR,,0.00,WeatherDisplay:10.37,2014-01-07 09:46:00,
2014-01-07 03:51:00,-14.3,-22.1,30.12,WNW,292,0.0,0.0,67,0.00,CLR,,0.00,WeatherDisplay:10.37,2014-01-07 09:51:00,
2014-01-07 03:56:00,-14.3,-22.1,30.12,SW,225,0.0,0.0,67,0.00,CLR,,0.00,WeatherDisplay:10.37,2014-01-07 09:56:00,
2014-01-07 04:01:00,-14.3,-22.1,30.12,SW,225,9.2,9.2,67,0.00,CLR,,0.00,WeatherDisplay:10.37,2014-01-07 10:01:00,
2014-01-07 04:06:00,-13.9,-21.7,30.13,SW,225,0.0,0.0,67,0.00,CLR,,0.00,WeatherDisplay:10.37,2014-01-07 10:06:00,
2014-01-07 04:11:00,-13.9,-21.7,30.13,SSW,202,0.0,0.0,67,0.00,CLR,,0.00,WeatherDisplay:10.37,2014-01-07 10:11:00,
2014-01-07 04:16:00,-13.9,-21.4,30.12,SSW,202,0.0,0.0,68,0.00,CLR,,0.00,WeatherDisplay:10.37,2014-01-07 10:16:00,
2014-01-07 04:21:00,-13.9,-21.4,30.12,SW,225,0.0,0.0,68,0.00,CLR,,0.00,WeatherDisplay:10.37,2014-01-07 10:21:00,
2014-01-07 04:26:00,-13.7,-21.5,30.12,SW,225,0.0,0.0,67,0.00,CLR,,0.00,WeatherDisplay:10.37,2014-01-07 10:26:00,
2014-01-07 04:31:00,-13.7,-21.5,30.12,West,270,0.0,0.0,67,0.00,CLR,,0.00,WeatherDisplay:10.37,2014-01-07 10:31:00,
2014-01-07 04:36:00,-13.7,-21.5,30.12,West,270,0.0,0.0,67,0.00,CLR,,0.00,WeatherDisplay:10.37,2014-01-07 10:36:00,
2014-01-07 04:41:00,-13.5,-21.4,30.12,West,270,0.0,0.0,67,0.00,CLR,,0.00,WeatherDisplay:10.37,2014-01-07 10:41:00,
2014-01-07 04:46:00,-13.5,-21.4,30.12,WSW,248,0.0,0.0,67,0.00,CLR,,0.00,WeatherDisplay:10.37,2014-01-07 10:46:00,
2014-01-07 04:51:00,-13.5,-21.4,30.12,WSW,248,0.0,0.0,67,0.00,CLR,,0.00,WeatherDisplay:10.37,2014-01-07 10:51:00,
2014-01-07 04:56:00,-13.4,-21.2,30.11,WSW,248,0.0,0.0,67,0.00,CLR,,0.00,WeatherDisplay:10.37,2014-01-07 10:56:00,
2014-01-07 05:01:00,-13.4,-21.2,30.11,WSW,248,0.0,0.0,67,0.00,CLR,,0.00,WeatherDisplay:10.37,2014-01-07 11:01:00,
2014-01-07 05:06:00,-13.4,-21.2,30.11,WSW,248,0.0,0.0,67,0.00,CLR,,0.00,WeatherDisplay:10.37,2014-01-07 11:06:00,
2014-01-07 05:11:00,-13.4,-21.2,30.11,SW,225,0.0,0.0,67,0.00,CLR,,0.00,WeatherDisplay:10.37,2014-01-07 11:11:00,
2014-01-07 05:16:00,-13.4,-21.2,30.11,SW,225,0.0,0.0,67,0.00,CLR,,0.00,WeatherDisplay:10.37,2014-01-07 11:16:00,
2014-01-07 05:21:00,-13.4,-21.2,30.11,SW,225,0.0,0.0,67,0.00,CLR,,0.00,WeatherDisplay:10.37,2014-01-07 11:21:00,
2014-01-07 05:26:00,-13.4,-21.2,30.11,SW,225,0.0,0.0,67,0.00,CLR,,0.00,WeatherDisplay:10.37,2014-01-07 11:26:00,
2014-01-07 05:31:00,-13.4,-21.2,30.11,West,270,0.0,0.0,67,0.00,CLR,,0.00,WeatherDisplay:10.37,2014-01-07 11:31:00,
2014-01-07 05:36:00,-13.4,-21.2,30.11,West,270,0.0,0.0,67,0.00,CLR,,0.00,WeatherDisplay:10.37,2014-01-07 11:36:00,
2014-01-07 05:41:00,-13.5,-21.4,30.11,WSW,248,0.0,0.0,67,0.00,CLR,,0.00,WeatherDisplay:10.37,2014-01-07 11:41:00,
2014-01-07 05:46:00,-13.4,-21.2,30.11,WSW,248,0.0,0.0,67,0.00,CLR,,0.00,WeatherDisplay:10.37,2014-01-07 11:46:00,
2014-01-07 05:51:00,-13.4,-21.2,30.10,West,270,0.0,0.0,67,0.00,CLR,,0.00,WeatherDisplay:10.37,2014-01-07 11:51:00,
2014-01-07 05:56:00,-13.4,-21.2,30.10,West,270,0.0,0.0,67,0.00,CLR,,0.00,WeatherDisplay:10.37,2014-01-07 11:56:00,
2014-01-07 06:01:00,-13.4,-21.2,30.10,West,270,0.0,0.0,67,0.00,CLR,,0.00,WeatherDisplay:10.37,2014-01-07 12:01:00,
2014-01-07 06:06:00,-13.2,-21.0,30.10,West,270,0.0,0.0,67,0.00,CLR,,0.00,WeatherDisplay:10.37,2014-01-07 12:06:00,
2014-01-07 06:11:00,-13.2,-21.0,30.10,West,270,0.0,0.0,67,0.00,CLR,,0.00,WeatherDisplay:10.37,2014-01-07 12:11:00,
2014-01-07 06:16:00,-13.2,-21.0,30.09,SW,225,0.0,0.0,67,0.00,CLR,,0.00,WeatherDisplay:10.37,2014-01-07 12:16:00,
2014-01-07 06:21:00,-13.0,-20.8,30.10,SW,225,0.0,0.0,67,0.00,CLR,,0.00,WeatherDisplay:10.37,2014-01-07 12:21:00,
2014-01-07 06:26:00,-12.8,-20.7,30.10,SW,225,0.0,0.0,67,0.00,CLR,,0.00,WeatherDisplay:10.37,2014-01-07 12:26:00,
2014-01-07 06:31:00,-12.8,-20.7,30.10,SW,225,0.0,0.0,67,0.00,CLR,,0.00,WeatherDisplay:10.37,2014-01-07 12:31:00,
2014-01-07 06:36:00,-12.6,-20.5,30.10,SW,225,0.0,0.0,67,0.00,CLR,,0.00,WeatherDisplay:10.37,2014-01-07 12:36:00,
2014-01-07 06:42:00,-12.5,-20.3,30.11,SW,225,0.0,0.0,67,0.00,CLR,,0.00,WeatherDisplay:10.37,2014-01-07 12:42:00,
2014-01-07 06:46:00,-12.5,-20.3,30.11,SW,225,0.0,0.0,67,0.00,CLR,,0.00,WeatherDisplay:10.37,2014-01-07 12:46:00,
2014-01-07 06:52:00,-12.3,-20.2,30.11,SW,225,0.0,0.0,67,0.00,CLR,,0.00,WeatherDisplay:10.37,2014-01-07 12:52:00,
2014-01-07 06:57:00,-12.3,-20.2,30.11,SW,225,0.0,0.0,67,0.00,CLR,,0.00,WeatherDisplay:10.37,2014-01-07 12:57:00,
2014-01-07 07:02:00,-12.3,-20.2,30.12,SW,225,0.0,0.0,67,0.00,CLR,,0.00,WeatherDisplay:10.37,2014-01-07 13:02:00,
2014-01-07 07:07:00,-12.1,-20.0,30.11,SW,225,0.0,0.0,67,0.00,CLR,,0.00,WeatherDisplay:10.37,2014-01-07 13:07:00,
2014-01-07 07:12:00,-12.1,-20.0,30.12,SW,225,0.0,0.0,67,0.00,CLR,,0.00,WeatherDisplay:10.37,2014-01-07 13:12:00,
2014-01-07 07:17:00,-11.9,-19.8,30.12,SW,225,0.0,0.0,67,0.00,CLR,,0.00,WeatherDisplay:10.37,2014-01-07 13:17:00,
2014-01-07 07:22:00,-11.7,-19.6,30.12,SW,225,0.0,0.0,67,0.00,CLR,,0.00,WeatherDisplay:10.37,2014-01-07 13:22:00,
2014-01-07 07:27:00,-11.7,-19.6,30.11,SW,225,0.0,0.0,67,0.00,CLR,,0.00,WeatherDisplay:10.37,2014-01-07 13:27:00,
2014-01-07 07:32:00,-11.7,-19.6,30.11,SW,225,0.0,0.0,67,0.00,CLR,,0.00,WeatherDisplay:10.37,2014-01-07 13:32:00,
2014-01-07 07:37:00,-11.6,-19.5,30.11,SW,225,0.0,0.0,67,0.00,CLR,,0.00,WeatherDisplay:10.37,2014-01-07 13:37:00,
2014-01-07 07:42:00,-11.4,-19.3,30.11,SW,225,0.0,0.0,67,0.00,CLR,,0.00,WeatherDisplay:10.37,2014-01-07 13:42:00,
2014-01-07 07:47:00,-11.2,-19.1,30.11,SW,225,0.0,0.0,67,0.00,CLR,,0.00,WeatherDisplay:10.37,2014-01-07 13:47:00,
2014-01-07 07:52:00,-11.2,-19.1,30.11,SW,225,0.0,0.0,67,0.00,CLR,,0.00,WeatherDisplay:10.37,2014-01-07 13:52:00,
2014-01-07 07:57:00,-10.8,-18.8,30.12,SW,225,0.0,0.0,67,0.00,CLR,,0.00,WeatherDisplay:10.37,2014-01-07 13:57:00,
2014-01-07 08:02:00,-10.7,-18.6,30.12,SW,225,0.0,0.0,67,0.00,CLR,,0.00,WeatherDisplay:10.37,2014-01-07 14:02:00,
2014-01-07 08:07:00,-10.3,-18.0,30.12,SW,225,0.0,0.0,68,0.00,CLR,,0.00,WeatherDisplay:10.37,2014-01-07 14:07:00,
2014-01-07 08:12:00,-10.1,-17.8,30.12,SW,225,0.0,0.0,68,0.00,CLR,,0.00,WeatherDisplay:10.37,2014-01-07 14:12:00,
2014-01-07 08:17:00,-9.8,-17.4,30.12,SW,225,0.0,0.0,68,0.00,CLR,,0.00,WeatherDisplay:10.37,2014-01-07 14:17:00,
2014-01-07 08:22:00,-9.6,-17.3,30.13,SW,225,0.0,0.0,68,0.00,CLR,,0.00,WeatherDisplay:10.37,2014-01-07 14:22:00,
2014-01-07 08:27:00,-9.4,-17.4,30.13,SW,225,0.0,0.0,67,0.00,CLR,,0.00,WeatherDisplay:10.37,2014-01-07 14:27:00,
2014-01-07 08:32:00,-9.0,-17.0,30.13,SW,225,0.0,0.0,67,0.00,CLR,,0.00,WeatherDisplay:10.37,2014-01-07 14:32:00,
2014-01-07 08:37:00,-8.9,-16.9,30.13,SW,225,0.0,0.0,67,0.00,CLR,,0.00,WeatherDisplay:10.37,2014-01-07 14:37:00,
2014-01-07 08:42:00,-8.1,-16.2,30.13,SW,225,0.0,0.0,67,0.00,CLR,,0.00,WeatherDisplay:10.37,2014-01-07 14:42:00,
2014-01-07 08:47:00,-7.8,-15.8,30.12,SW,225,0.0,0.0,67,0.00,CLR,,0.00,WeatherDisplay:10.37,2014-01-07 14:47:00,
2014-01-07 08:52:00,-7.6,-15.7,30.13,SW,225,0.0,0.0,67,0.00,CLR,,0.00,WeatherDisplay:10.37,2014-01-07 14:52:00,
2014-01-07 08:57:00,-7.2,-15.3,30.13,SW,225,0.0,0.0,67,0.00,CLR,,0.00,WeatherDisplay:10.37,2014-01-07 14:57:00,
2014-01-07 09:02:00,-7.1,-15.1,30.13,SW,225,0.0,0.0,67,0.00,CLR,,0.00,WeatherDisplay:10.37,2014-01-07 15:02:00,
2014-01-07 09:07:00,-7.1,-15.1,30.13,SW,225,0.0,0.0,67,0.00,CLR,,0.00,WeatherDisplay:10.37,2014-01-07 15:07:00,
2014-01-07 09:12:00,-6.7,-15.1,30.13,SW,225,0.0,0.0,66,0.00,CLR,,0.00,WeatherDisplay:10.37,2014-01-07 15:12:00,
2014-01-07 09:17:00,-6.7,-15.1,30.13,SW,225,0.0,0.0,66,0.00,CLR,,0.00,WeatherDisplay:10.37,2014-01-07 15:17:00,
2014-01-07 09:22:00,-6.3,-14.7,30.14,SW,225,0.0,0.0,66,0.00,CLR,,0.00,WeatherDisplay:10.37,2014-01-07 15:22:00,
2014-01-07 09:27:00,-6.2,-14.6,30.14,SW,225,0.0,0.0,66,0.00,CLR,,0.00,WeatherDisplay:10.37,2014-01-07 15:27:00,
2014-01-07 09:32:00,-6.0,-14.4,30.14,SW,225,0.0,0.0,66,0.00,CLR,,0.00,WeatherDisplay:10.37,2014-01-07 15:32:00,
2014-01-07 09:37:00,-5.6,-14.1,30.14,SW,225,0.0,0.0,66,0.00,CLR,,0.00,WeatherDisplay:10.37,2014-01-07 15:37:00,
2014-01-07 09:42:00,-5.4,-14.2,30.15,SW,225,0.0,0.0,65,0.00,CLR,,0.00,WeatherDisplay:10.37,2014-01-07 15:42:00,
2014-01-07 09:47:00,-5.1,-13.8,30.15,SW,225,0.0,0.0,65,0.00,CLR,,0.00,WeatherDisplay:10.37,2014-01-07 15:47:00,
2014-01-07 09:52:00,-4.4,-13.2,30.15,SW,225,0.0,0.0,65,0.00,CLR,,0.00,WeatherDisplay:10.37,2014-01-07 15:52:00,
2014-01-07 09:57:00,-3.6,-12.5,30.15,WSW,248,0.0,0.0,65,0.00,CLR,,0.00,WeatherDisplay:10.37,2014-01-07 15:57:00,
2014-01-07 10:02:00,-3.1,-12.3,30.16,WSW,248,9.2,0.0,64,0.00,CLR,,0.00,WeatherDisplay:10.37,2014-01-07 16:02:00,
2014-01-07 10:08:00,-2.7,-11.9,30.16,West,270,2.3,2.3,64,0.00,CLR,,0.00,WeatherDisplay:10.37,2014-01-07 16:08:00,
2014-01-07 10:13:00,-2.2,-11.7,30.16,West,270,0.0,0.0,63,0.00,CLR,,0.00,WeatherDisplay:10.37,2014-01-07 16:13:00,
2014-01-07 10:18:00,-1.7,-11.2,30.15,SW,225,5.8,5.8,63,0.00,CLR,,0.00,WeatherDisplay:10.37,2014-01-07 16:18:00,
2014-01-07 10:23:00,-0.9,-10.8,30.15,WSW,248,0.0,0.0,62,0.00,CLR,,0.00,WeatherDisplay:10.37,2014-01-07 16:23:00,
2014-01-07 10:28:00,-0.8,-11.0,30.16,SW,225,9.2,9.2,61,0.00,CLR,,0.00,WeatherDisplay:10.37,2014-01-07 16:28:00,
2014-01-07 10:33:00,-0.4,-11.0,30.16,West,270,0.0,0.0,60,0.00,CLR,,0.00,WeatherDisplay:10.37,2014-01-07 16:33:00,
2014-01-07 10:38:00,-0.6,-11.2,30.16,WSW,248,0.0,0.0,60,0.00,CLR,,0.00,WeatherDisplay:10.37,2014-01-07 16:38:00,
2014-01-07 10:43:00,-0.4,-11.0,30.16,West,270,25.3,0.0,60,0.00,CLR,,0.00,WeatherDisplay:10.37,2014-01-07 16:43:00,
2014-01-07 10:48:00,0.0,-10.7,30.16,SW,225,26.5,26.5,60,0.00,CLR,,0.00,WeatherDisplay:10.37,2014-01-07 16:48:00,
2014-01-07 10:53:00,0.5,-10.5,30.15,SW,225,13.4,13.4,59,0.00,CLR,,0.00,WeatherDisplay:10.37,2014-01-07 16:53:00,
2014-01-07 10:58:00,0.5,-10.5,30.15,SW,225,7.2,7.2,59,0.00,CLR,,0.00,WeatherDisplay:10.37,2014-01-07 16:58:00,
2014-01-07 11:03:00,1.0,-10.0,30.15,WSW,248,26.5,26.5,59,0.00,CLR,,0.00,WeatherDisplay:10.37,2014-01-07 17:03:00,
2014-01-07 11:08:00,1.4,-10.0,30.15,WSW,248,26.5,26.5,58,0.00,CLR,,0.00,WeatherDisplay:10.37,2014-01-07 17:08:00,
2014-01-07 11:13:00,1.9,-9.5,30.14,WNW,292,26.5,26.5,58,0.00,CLR,,0.00,WeatherDisplay:10.37,2014-01-07 17:13:00,
2014-01-07 11:18:00,1.9,-9.5,30.14,WNW,292,5.1,0.0,58,0.00,CLR,,0.00,WeatherDisplay:10.37,2014-01-07 17:18:00,
2014-01-07 11:23:00,2.3,-9.5,30.14,WSW,248,26.6,26.6,57,0.00,CLR,,0.00,WeatherDisplay:10.37,2014-01-07 17:23:00,
2014-01-07 11:28:00,2.5,-9.3,30.14,WNW,292,0.0,0.0,57,0.00,CLR,,0.00,WeatherDisplay:10.37,2014-01-07 17:28:00,
2014-01-07 11:33:00,2.5,-9.7,30.14,SW,225,0.0,0.0,56,0.00,CLR,,0.00,WeatherDisplay:10.37,2014-01-07 17:33:00,
2014-01-07 11:38:00,2.5,-9.7,30.14,SW,225,2.3,2.3,56,0.00,CLR,,0.00,WeatherDisplay:10.37,2014-01-07 17:38:00,
2014-01-07 11:43:00,2.7,-9.5,30.14,SW,225,0.0,0.0,56,0.00,CLR,,0.00,WeatherDisplay:10.37,2014-01-07 17:43:00,
2014-01-07 11:48:00,3.0,-9.2,30.13,SW,225,5.1,5.1,56,0.00,CLR,,0.00,WeatherDisplay:10.37,2014-01-07 17:48:00,
2014-01-07 11:53:00,3.6,-8.7,30.13,NNW,338,0.0,0.0,56,0.00,CLR,,0.00,WeatherDisplay:10.37,2014-01-07 17:53:00,
2014-01-07 11:58:00,3.6,-8.7,30.13,SW,225,1.2,0.0,56,0.00,CLR,,0.00,WeatherDisplay:10.37,2014-01-07 17:58:00,
2014-01-07 12:03:00,3.6,-9.0,30.12,WSW,248,2.0,2.0,55,0.00,CLR,,0.00,WeatherDisplay:10.37,2014-01-07 18:03:00,
2014-01-07 12:08:00,3.6,-9.0,30.12,SW,225,8.1,8.1,55,0.00,CLR,,0.00,WeatherDisplay:10.37,2014-01-07 18:08:00,
2014-01-07 12:13:00,3.7,-8.9,30.12,SSW,202,5.8,5.8,55,0.00,CLR,,0.00,WeatherDisplay:10.37,2014-01-07 18:13:00,
2014-01-07 12:18:00,3.7,-8.9,30.11,SW,225,3.4,3.4,55,0.00,CLR,,0.00,WeatherDisplay:10.37,2014-01-07 18:18:00,
2014-01-07 12:23:00,4.1,-8.9,30.11,SW,225,5.8,0.0,54,0.00,CLR,,0.00,WeatherDisplay:10.37,2014-01-07 18:23:00,
2014-01-07 12:28:00,4.5,-8.6,30.11,SW,225,5.6,5.6,54,0.00,CLR,,0.00,WeatherDisplay:10.37,2014-01-07 18:28:00,
2014-01-07 12:33:00,4.6,-8.4,30.11,SW,225,3.5,3.5,54,0.00,CLR,,0.00,WeatherDisplay:10.37,2014-01-07 18:33:00,
2014-01-07 12:38:00,4.8,-8.2,30.11,WSW,248,0.0,0.0,54,0.00,CLR,,0.00,WeatherDisplay:10.37,2014-01-07 18:38:00,
2014-01-07 12:43:00,4.6,-8.4,30.10,NNW,338,0.0,0.0,54,0.00,CLR,,0.00,WeatherDisplay:10.37,2014-01-07 18:43:00,
2014-01-07 12:48:00,4.5,-8.9,30.10,WNW,292,0.0,0.0,53,0.00,CLR,,0.00,WeatherDisplay:10.37,2014-01-07 18:48:00,
2014-01-07 12:53:00,4.3,-9.1,30.10,NW,315,3.6,3.6,53,0.00,CLR,,0.00,WeatherDisplay:10.37,2014-01-07 18:53:00,
2014-01-07 12:58:00,4.1,-9.3,30.10,NW,315,3.5,0.0,53,0.00,CLR,,0.00,WeatherDisplay:10.37,2014-01-07 18:58:00,
2014-01-07 13:03:00,4.1,-9.3,30.10,WNW,292,2.3,0.0,53,0.00,CLR,,0.00,WeatherDisplay:10.37,2014-01-07 19:03:00,
2014-01-07 13:08:00,4.1,-9.3,30.10,North,0,2.3,2.3,53,0.00,CLR,,0.00,WeatherDisplay:10.37,2014-01-07 19:08:00,
2014-01-07 13:13:00,4.1,-9.3,30.10,SW,225,5.8,5.8,53,0.00,CLR,,0.00,WeatherDisplay:10.37,2014-01-07 19:13:00,
2014-01-07 13:18:00,4.5,-8.9,30.10,SW,225,4.6,4.6,53,0.00,CLR,,0.00,WeatherDisplay:10.37,2014-01-07 19:18:00,
2014-01-07 13:23:00,4.6,-8.8,30.10,SW,225,5.1,5.1,53,0.00,CLR,,0.00,WeatherDisplay:10.37,2014-01-07 19:23:00,
2014-01-07 13:28:00,5.2,-8.3,30.10,NNW,338,1.8,1.8,53,0.00,CLR,,0.00,WeatherDisplay:10.37,2014-01-07 19:28:00,
2014-01-07 13:33:00,5.0,-8.8,30.10,West,270,0.0,0.0,52,0.00,CLR,,0.00,WeatherDisplay:10.37,2014-01-07 19:33:00,
2014-01-07 13:38:00,5.0,-8.8,30.10,NW,315,0.0,0.0,52,0.00,CLR,,0.00,WeatherDisplay:10.37,2014-01-07 19:38:00,
2014-01-07 13:43:00,5.0,-8.8,30.11,WNW,292,0.0,0.0,52,0.00,CLR,,0.00,WeatherDisplay:10.37,2014-01-07 19:43:00,
2014-01-07 13:48:00,5.2,-8.6,30.11,SW,225,4.6,4.6,52,0.00,CLR,,0.00,WeatherDisplay:10.37,2014-01-07 19:48:00,
2014-01-07 13:53:00,5.4,-8.5,30.11,NNW,338,3.5,3.5,52,0.00,CLR,,0.00,WeatherDisplay:10.37,2014-01-07 19:53:00,
2014-01-07 13:58:00,5.2,-8.6,30.11,West,270,0.0,0.0,52,0.00,CLR,,0.00,WeatherDisplay:10.37,2014-01-07 19:58:00,
2014-01-07 14:03:00,5.0,-8.8,30.11,NNW,338,0.0,1.9,52,0.00,CLR,,0.00,WeatherDisplay:10.37,2014-01-07 20:03:00,
2014-01-07 14:08:00,5.0,-8.8,30.11,NNE,22,0.0,0.0,52,0.00,CLR,,0.00,WeatherDisplay:10.37,2014-01-07 20:08:00,
2014-01-07 14:13:00,5.4,-8.5,30.10,WNW,292,0.0,0.0,52,0.00,CLR,,0.00,WeatherDisplay:10.37,2014-01-07 20:13:00,
2014-01-07 14:18:00,5.4,-8.5,30.10,NW,315,0.0,0.0,52,0.00,CLR,,0.00,WeatherDisplay:10.37,2014-01-07 20:18:00,
2014-01-07 14:23:00,5.2,-8.6,30.11,NW,315,1.2,1.2,52,0.00,CLR,,0.00,WeatherDisplay:10.37,2014-01-07 20:23:00,
2014-01-07 14:28:00,5.0,-8.8,30.11,NW,315,0.0,0.0,52,0.00,CLR,,0.00,WeatherDisplay:10.37,2014-01-07 20:28:00,
2014-01-07 14:33:00,5.0,-8.8,30.12,NW,315,2.3,2.3,52,0.00,CLR,,0.00,WeatherDisplay:10.37,2014-01-07 20:33:00,
2014-01-07 14:38:00,5.0,-8.8,30.12,NNW,338,11.5,11.5,52,0.00,CLR,,0.00,WeatherDisplay:10.37,2014-01-07 20:38:00,
2014-01-07 14:43:00,4.6,-9.5,30.12,NNW,338,4.6,4.6,51,0.00,CLR,,0.00,WeatherDisplay:10.37,2014-01-07 20:43:00,
2014-01-07 14:48:00,4.6,-9.2,30.12,NNW,338,5.8,5.8,52,0.00,CLR,,0.00,WeatherDisplay:10.37,2014-01-07 20:48:00,
2014-01-07 14:53:00,4.5,-9.3,30.12,NNW,338,3.5,3.5,52,0.00,CLR,,0.00,WeatherDisplay:10.37,2014-01-07 20:53:00,
2014-01-07 14:58:00,4.3,-9.5,30.12,NNW,338,4.9,4.9,52,0.00,CLR,,0.00,WeatherDisplay:10.37,2014-01-07 20:58:00,
2014-01-07 15:03:00,4.6,-9.2,30.12,WSW,248,0.0,0.0,52,0.00,CLR,,0.00,WeatherDisplay:10.37,2014-01-07 21:03:00,
2014-01-07 15:08:00,5.5,-8.3,30.12,NW,315,0.0,0.0,52,0.00,CLR,,0.00,WeatherDisplay:10.37,2014-01-07 21:08:00,
2014-01-07 15:13:00,5.5,-8.3,30.13,WSW,248,0.0,0.0,52,0.00,CLR,,0.00,WeatherDisplay:10.37,2014-01-07 21:13:00,
2014-01-07 15:19:00,5.5,-8.3,30.13,WSW,248,0.0,0.0,52,0.00,CLR,,0.00,WeatherDisplay:10.37,2014-01-07 21:19:00,
2014-01-07 15:24:00,5.5,-8.3,30.13,WSW,248,0.0,0.0,52,0.00,CLR,,0.00,WeatherDisplay:10.37,2014-01-07 21:24:00,
2014-01-07 15:29:00,5.7,-8.1,30.14,WSW,248,0.0,0.0,52,0.00,CLR,,0.00,WeatherDisplay:10.37,2014-01-07 21:29:00,
2014-01-07 15:34:00,6.1,-7.8,30.14,WSW,248,4.6,4.6,52,0.00,CLR,,0.00,WeatherDisplay:10.37,2014-01-07 21:34:00,
2014-01-07 15:39:00,6.3,-7.6,30.14,WSW,248,0.0,0.0,52,0.00,CLR,,0.00,WeatherDisplay:10.37,2014-01-07 21:39:00,
2014-01-07 15:44:00,6.1,-7.8,30.15,WSW,248,0.0,0.0,52,0.00,CLR,,0.00,WeatherDisplay:10.37,2014-01-07 21:44:00,
2014-01-07 15:49:00,6.1,-7.8,30.14,WSW,248,0.0,0.0,52,0.00,CLR,,0.00,WeatherDisplay:10.37,2014-01-07 21:49:00,
2014-01-07 15:54:00,6.3,-7.6,30.14,WSW,248,0.0,0.0,52,0.00,CLR,,0.00,WeatherDisplay:10.37,2014-01-07 21:54:00,
2014-01-07 15:59:00,6.3,-7.6,30.14,NW,315,0.0,0.0,52,0.00,CLR,,0.00,WeatherDisplay:10.37,2014-01-07 21:59:00,
2014-01-07 16:04:00,6.3,-8.0,30.14,NW,315,0.0,0.0,51,0.00,CLR,,0.00,WeatherDisplay:10.37,2014-01-07 22:04:00,
2014-01-07 16:09:00,5.7,-8.5,30.14,WNW,292,0.0,0.0,51,0.00,CLR,,0.00,WeatherDisplay:10.37,2014-01-07 22:09:00,
2014-01-07 16:14:00,4.8,-9.4,30.14,NNW,338,0.0,0.0,51,0.00,CLR,,0.00,WeatherDisplay:10.37,2014-01-07 22:14:00,
2014-01-07 16:19:00,4.1,-9.7,30.14,NNW,338,0.0,0.0,52,0.00,CLR,,0.00,WeatherDisplay:10.37,2014-01-07 22:19:00,
2014-01-07 16:24:00,3.7,-10.0,30.15,NNW,338,0.0,0.0,52,0.00,CLR,,0.00,WeatherDisplay:10.37,2014-01-07 22:24:00,
2014-01-07 16:29:00,3.2,-10.1,30.15,WNW,292,0.0,0.0,53,0.00,CLR,,0.00,WeatherDisplay:10.37,2014-01-07 22:29:00,
2014-01-07 16:34:00,3.2,-10.1,30.15,WNW,292,0.0,0.0,53,0.00,CLR,,0.00,WeatherDisplay:10.37,2014-01-07 22:34:00,
2014-01-07 16:39:00,2.8,-10.4,30.15,NW,315,0.0,0.0,53,0.00,CLR,,0.00,WeatherDisplay:10.37,2014-01-07 22:39:00,
2014-01-07 16:44:00,2.5,-10.8,30.16,SW,225,5.8,5.8,53,0.00,CLR,,0.00,WeatherDisplay:10.37,2014-01-07 22:44:00,
2014-01-07 16:49:00,2.3,-10.6,30.16,WSW,248,0.0,0.0,54,0.00,CLR,,0.00,WeatherDisplay:10.37,2014-01-07 22:49:00,
2014-01-07 16:54:00,1.9,-10.9,30.16,WSW,248,0.0,0.0,54,0.00,CLR,,0.00,WeatherDisplay:10.37,2014-01-07 22:54:00,
2014-01-07 16:59:00,1.8,-11.1,30.16,WSW,248,0.0,0.0,54,0.00,CLR,,0.00,WeatherDisplay:10.37,2014-01-07 22:59:00,
2014-01-07 17:04:00,1.6,-10.9,30.16,SW,225,0.0,0.0,55,0.00,CLR,,0.00,WeatherDisplay:10.37,2014-01-07 23:04:00,
2014-01-07 17:09:00,1.4,-11.1,30.16,SW,225,0.0,0.0,55,0.00,CLR,,0.00,WeatherDisplay:10.37,2014-01-07 23:09:00,
2014-01-07 17:14:00,1.4,-11.1,30.16,SW,225,0.0,0.0,55,0.00,CLR,,0.00,WeatherDisplay:10.37,2014-01-07 23:14:00,
2014-01-07 17:19:00,1.2,-11.2,30.16,SW,225,0.0,0.0,55,0.00,CLR,,0.00,WeatherDisplay:10.37,2014-01-07 23:19:00,
2014-01-07 17:24:00,1.0,-11.4,30.16,SW,225,0.0,0.0,55,0.00,CLR,,0.00,WeatherDisplay:10.37,2014-01-07 23:24:00,
2014-01-07 17:29:00,1.0,-11.4,30.16,SW,225,0.0,0.0,55,0.00,CLR,,0.00,WeatherDisplay:10.37,2014-01-07 23:29:00,
2014-01-07 17:34:00,1.0,-11.0,30.16,SW,225,0.0,0.0,56,0.00,CLR,,0.00,WeatherDisplay:10.37,2014-01-07 23:34:00,
2014-01-07 17:39:00,1.0,-11.0,30.16,SW,225,0.0,0.0,56,0.00,CLR,,0.00,WeatherDisplay:10.37,2014-01-07 23:39:00,
2014-01-07 17:44:00,0.9,-11.2,30.16,SW,225,0.0,0.0,56,0.00,CLR,,0.00,WeatherDisplay:10.37,2014-01-07 23:44:00,
2014-01-07 17:50:00,0.9,-11.2,30.17,SW,225,0.0,0.0,56,0.00,CLR,,0.00,WeatherDisplay:10.37,2014-01-07 23:50:00,
2014-01-07 17:55:00,0.7,-11.4,30.16,SW,225,0.0,0.0,56,0.00,CLR,,0.00,WeatherDisplay:10.37,2014-01-07 23:55:00,
2014-01-07 18:00:00,0.7,-11.0,30.17,SW,225,0.0,0.0,57,0.00,CLR,,0.00,WeatherDisplay:10.37,2014-01-08 00:00:00,
2014-01-07 18:05:00,0.5,-11.2,30.17,SW,225,0.0,0.0,57,0.00,CLR,,0.00,WeatherDisplay:10.37,2014-01-08 00:05:00,
2014-01-07 18:10:00,0.5,-11.2,30.17,SW,225,0.0,0.0,57,0.00,CLR,,0.00,WeatherDisplay:10.37,2014-01-08 00:10:00,
2014-01-07 18:15:00,0.5,-11.2,30.18,SW,225,0.0,0.0,57,0.00,CLR,,0.00,WeatherDisplay:10.37,2014-01-08 00:15:00,
2014-01-07 18:20:00,0.5,-11.2,30.18,SW,225,0.0,0.0,57,0.00,CLR,,0.00,WeatherDisplay:10.37,2014-01-08 00:20:00,
2014-01-07 18:25:00,0.1,-11.5,30.18,SW,225,0.0,0.0,57,0.00,CLR,,0.00,WeatherDisplay:10.37,2014-01-08 00:25:00,
2014-01-07 18:30:00,0.1,-11.2,30.17,SW,225,0.0,0.0,58,0.00,CLR,,0.00,WeatherDisplay:10.37,2014-01-08 00:30:00,
2014-01-07 18:35:00,0.0,-11.7,30.17,SW,225,0.0,0.0,57,0.00,CLR,,0.00,WeatherDisplay:10.37,2014-01-08 00:35:00,
2014-01-07 18:40:00,0.0,-11.7,30.17,SW,225,0.0,0.0,57,0.00,CLR,,0.00,WeatherDisplay:10.37,2014-01-08 00:40:00,
2014-01-07 18:45:00,-0.4,-11.7,30.17,SW,225,0.0,0.0,58,0.00,CLR,,0.00,WeatherDisplay:10.37,2014-01-08 00:45:00,
2014-01-07 18:50:00,-0.4,-11.7,30.17,SW,225,0.0,0.0,58,0.00,CLR,,0.00,WeatherDisplay:10.37,2014-01-08 00:50:00,
2014-01-07 18:55:00,-0.6,-11.8,30.18,SW,225,0.0,0.0,58,0.00,CLR,,0.00,WeatherDisplay:10.37,2014-01-08 00:55:00,
2014-01-07 19:00:00,-0.8,-12.0,30.18,SW,225,0.0,0.0,58,0.00,CLR,,0.00,WeatherDisplay:10.37,2014-01-08 01:00:00,
2014-01-07 19:05:00,-0.8,-12.0,30.17,SW,225,0.0,0.0,58,0.00,CLR,,0.00,WeatherDisplay:10.37,2014-01-08 01:05:00,
2014-01-07 19:10:00,-0.9,-12.2,30.18,SW,225,0.0,0.0,58,0.00,CLR,,0.00,WeatherDisplay:10.37,2014-01-08 01:10:00,
2014-01-07 19:15:00,-0.9,-12.2,30.18,SW,225,0.0,0.0,58,0.00,CLR,,0.00,WeatherDisplay:10.37,2014-01-08 01:15:00,
2014-01-07 19:20:00,-1.3,-12.5,30.18,SW,225,0.0,0.0,58,0.00,CLR,,0.00,WeatherDisplay:10.37,2014-01-08 01:20:00,
2014-01-07 19:25:00,-1.5,-12.4,30.18,SW,225,0.0,0.0,59,0.00,CLR,,0.00,WeatherDisplay:10.37,2014-01-08 01:25:00,
2014-01-07 19:30:00,-1.7,-12.5,30.18,SW,225,0.0,0.0,59,0.00,CLR,,0.00,WeatherDisplay:10.37,2014-01-08 01:30:00,
2014-01-07 19:35:00,-1.7,-12.5,30.18,SW,225,0.0,0.0,59,0.00,CLR,,0.00,WeatherDisplay:10.37,2014-01-08 01:35:00,
2014-01-07 19:40:00,-1.8,-12.7,30.19,SW,225,0.0,0.0,59,0.00,CLR,,0.00,WeatherDisplay:10.37,2014-01-08 01:40:00,
2014-01-07 19:45:00,-2.2,-13.0,30.19,SW,225,0.0,0.0,59,0.00,CLR,,0.00,WeatherDisplay:10.37,2014-01-08 01:45:00,
2014-01-07 19:50:00,-2.2,-13.0,30.19,SW,225,0.0,0.0,59,0.00,CLR,,0.00,WeatherDisplay:10.37,2014-01-08 01:50:00,
2014-01-07 19:55:00,-2.4,-13.2,30.19,SW,225,0.0,0.0,59,0.00,CLR,,0.00,WeatherDisplay:10.37,2014-01-08 01:55:00,
2014-01-07 20:00:00,-2.6,-13.4,30.19,SW,225,0.0,0.0,59,0.00,CLR,,0.00,WeatherDisplay:10.37,2014-01-08 02:00:00,
2014-01-07 20:05:00,-2.7,-13.5,30.20,SW,225,26.5,26.5,59,0.00,CLR,,0.00,WeatherDisplay:10.37,2014-01-08 02:05:00,
2014-01-07 20:10:00,-2.7,-13.2,30.20,SW,225,0.0,0.0,60,0.00,CLR,,0.00,WeatherDisplay:10.37,2014-01-08 02:10:00,
2014-01-07 20:15:00,-2.9,-13.4,30.20,SW,225,27.6,27.6,60,0.00,CLR,,0.00,WeatherDisplay:10.37,2014-01-08 02:15:00,
2014-01-07 20:20:00,-3.1,-13.6,30.20,SW,225,26.6,26.6,60,0.00,CLR,,0.00,WeatherDisplay:10.37,2014-01-08 02:20:00,
2014-01-07 20:25:00,-3.5,-13.9,30.20,SW,225,23.0,0.0,60,0.00,CLR,,0.00,WeatherDisplay:10.37,2014-01-08 02:25:00,
2014-01-07 20:30:00,-3.5,-13.9,30.21,SW,225,0.0,0.0,60,0.00,CLR,,0.00,WeatherDisplay:10.37,2014-01-08 02:30:00,
2014-01-07 20:35:00,-3.5,-13.9,30.21,SW,225,26.5,26.5,60,0.00,CLR,,0.00,WeatherDisplay:10.37,2014-01-08 02:35:00,
2014-01-07 20:40:00,-3.6,-14.1,30.20,SW,225,0.0,0.0,60,0.00,CLR,,0.00,WeatherDisplay:10.37,2014-01-08 02:40:00,
2014-01-07 20:45:00,-3.6,-14.1,30.20,SW,225,29.9,29.9,60,0.00,CLR,,0.00,WeatherDisplay:10.37,2014-01-08 02:45:00,
2014-01-07 20:50:00,-4.0,-14.4,30.20,SW,225,0.0,0.0,60,0.00,CLR,,0.00,WeatherDisplay:10.37,2014-01-08 02:50:00,
2014-01-07 20:55:00,-4.0,-14.4,30.20,SW,225,0.0,0.0,60,0.00,CLR,,0.00,WeatherDisplay:10.37,2014-01-08 02:55:00,
2014-01-07 21:01:00,-4.0,-14.4,30.20,SW,225,0.0,0.0,60,0.00,CLR,,0.00,WeatherDisplay:10.37,2014-01-08 03:01:00,
2014-01-07 21:06:00,-4.2,-14.6,30.20,SW,225,0.0,0.0,60,0.00,CLR,,0.00,WeatherDisplay:10.37,2014-01-08 03:06:00,
2014-01-07 21:11:00,-4.2,-14.3,30.20,SW,225,0.0,0.0,61,0.00,CLR,,0.00,WeatherDisplay:10.37,2014-01-08 03:11:00,
2014-01-07 21:16:00,-4.2,-14.3,30.20,SW,225,0.0,0.0,61,0.00,CLR,,0.00,WeatherDisplay:10.37,2014-01-08 03:16:00,
2014-01-07 21:21:00,-4.2,-14.3,30.21,SW,225,26.6,0.0,61,0.00,CLR,,0.00,WeatherDisplay:10.37,2014-01-08 03:21:00,
2014-01-07 21:26:00,-4.2,-14.3,30.20,SW,225,0.0,0.0,61,0.00,CLR,,0.00,WeatherDisplay:10.37,2014-01-08 03:26:00,
2014-01-07 21:31:00,-4.2,-13.9,30.21,SW,225,0.0,0.0,62,0.00,CLR,,0.00,WeatherDisplay:10.37,2014-01-08 03:31:00,
2014-01-07 21:36:00,-4.2,-13.9,30.20,SW,225,27.6,27.6,62,0.00,CLR,,0.00,WeatherDisplay:10.37,2014-01-08 03:36:00,
2014-01-07 21:41:00,-4.2,-13.9,30.20,SW,225,0.0,0.0,62,0.00,CLR,,0.00,WeatherDisplay:10.37,2014-01-08 03:41:00,
2014-01-07 21:46:00,-4.4,-14.1,30.20,SW,225,0.0,0.0,62,0.00,CLR,,0.00,WeatherDisplay:10.37,2014-01-08 03:46:00,
2014-01-07 21:51:00,-4.5,-14.3,30.21,SW,225,0.0,0.0,62,0.00,CLR,,0.00,WeatherDisplay:10.37,2014-01-08 03:51:00,
2014-01-07 21:56:00,-4.5,-14.3,30.21,SW,225,0.0,0.0,62,0.00,CLR,,0.00,WeatherDisplay:10.37,2014-01-08 03:56:00,
2014-01-07 22:01:00,-4.7,-14.4,30.21,SW,225,0.0,0.0,62,0.00,CLR,,0.00,WeatherDisplay:10.37,2014-01-08 04:01:00,
2014-01-07 22:06:00,-4.9,-14.6,30.22,SW,225,0.0,0.0,62,0.00,CLR,,0.00,WeatherDisplay:10.37,2014-01-08 04:06:00,
2014-01-07 22:11:00,-5.3,-15.0,30.21,SW,225,0.0,0.0,62,0.00,CLR,,0.00,WeatherDisplay:10.37,2014-01-08 04:11:00,
2014-01-07 22:16:00,-5.3,-15.0,30.21,SW,225,0.0,0.0,62,0.00,CLR,,0.00,WeatherDisplay:10.37,2014-01-08 04:16:00,
2014-01-07 22:21:00,-5.4,-15.1,30.21,SW,225,0.0,0.0,62,0.00,CLR,,0.00,WeatherDisplay:10.37,2014-01-08 04:21:00,
2014-01-07 22:26:00,-5.6,-15.3,30.22,SW,225,26.5,26.5,62,0.00,CLR,,0.00,WeatherDisplay:10.37,2014-01-08 04:26:00,
2014-01-07 22:31:00,-5.8,-15.5,30.22,SW,225,26.5,26.5,62,0.00,CLR,,0.00,WeatherDisplay:10.37,2014-01-08 04:31:00,
2014-01-07 22:36:00,-5.8,-15.5,30.22,SW,225,0.0,0.0,62,0.00,CLR,,0.00,WeatherDisplay:10.37,2014-01-08 04:36:00,
2014-01-07 22:41:00,-5.8,-15.5,30.23,SW,225,0.0,0.0,62,0.00,CLR,,0.00,WeatherDisplay:10.37,2014-01-08 04:41:00,
2014-01-07 22:46:00,-6.0,-15.3,30.23,SW,225,0.0,0.0,63,0.00,CLR,,0.00,WeatherDisplay:10.37,2014-01-08 04:46:00,
2014-01-07 22:51:00,-6.0,-15.3,30.22,SW,225,0.0,0.0,63,0.00,CLR,,0.00,WeatherDisplay:10.37,2014-01-08 04:51:00,
2014-01-07 22:56:00,-6.0,-15.3,30.23,SW,225,0.0,0.0,63,0.00,CLR,,0.00,WeatherDisplay:10.37,2014-01-08 04:56:00,
2014-01-07 23:01:00,-5.8,-15.2,30.23,SW,225,0.0,0.0,63,0.00,CLR,,0.00,WeatherDisplay:10.37,2014-01-08 05:01:00,
2014-01-07 23:02:00,-5.8,-15.2,30.23,SW,225,0.0,0.0,63,0.00,CLR,,0.00,WeatherDisplay:10.37,2014-01-08 05:02:00,
2014-01-07 23:07:00,-5.8,-15.2,30.23,SW,225,5.8,5.8,63,0.00,CLR,,0.00,WeatherDisplay:10.37,2014-01-08 05:07:00,
2014-01-07 23:12:00,-5.8,-15.2,30.23,SW,225,0.0,0.0,63,0.00,CLR,,0.00,WeatherDisplay:10.37,2014-01-08 05:12:00,
2014-01-07 23:17:00,-5.8,-15.2,30.23,SW,225,0.0,0.0,63,0.00,CLR,,0.00,WeatherDisplay:10.37,2014-01-08 05:17:00,
2014-01-07 23:22:00,-5.6,-15.0,30.23,SW,225,0.0,0.0,63,0.00,CLR,,0.00,WeatherDisplay:10.37,2014-01-08 05:22:00,
2014-01-07 23:27:00,-5.6,-15.0,30.23,SW,225,0.0,0.0,63,0.00,CLR,,0.00,WeatherDisplay:10.37,2014-01-08 05:27:00,
2014-01-07 23:32:00,-5.4,-14.5,30.23,SW,225,0.0,0.0,64,0.00,CLR,,0.00,WeatherDisplay:10.37,2014-01-08 05:32:00,
2014-01-07 23:37:00,-5.3,-14.3,30.24,SW,225,0.0,0.0,64,0.00,CLR,,0.00,WeatherDisplay:10.37,2014-01-08 05:37:00,
2014-01-07 23:42:00,-5.3,-14.3,30.24,SW,225,0.0,0.0,64,0.00,CLR,,0.00,WeatherDisplay:10.37,2014-01-08 05:42:00,
2014-01-07 23:47:00,-5.3,-14.3,30.23,SW,225,0.0,0.0,64,0.00,CLR,,0.00,WeatherDisplay:10.37,2014-01-08 05:47:00,
2014-01-07 23:52:00,-5.1,-14.2,30.23,SW,225,0.0,0.0,64,0.00,CLR,,0.00,WeatherDisplay:10.37,2014-01-08 05:52:00,
2014-01-07 23:57:00,-5.1,-14.2,30.23,SW,225,0.0,0.0,64,0.00,CLR,,0.00,WeatherDisplay:10.37,2014-01-08 05:57:00,